Regional Weather Roundup
Issued by NWS Newport/Morehead, NC

Home | Current Version | Previous Version | Text Only | Print | Product List | Glossary On
Versions: 1 2 3 4 5 6 7 8 9 10 11 12 13 14 15 16 17 18 19 20 21 22 23 24 25 26 27 28 29 30 31 32 33 34 35 36 37 38 39 40 41 42 43 44 45 46 47 48 49 50
000
ASUS42 KMHX 120922
RWRMHX
WEATHER ROUNDUP FOR EASTERN NORTH CAROLINA
NATIONAL WEATHER SERVICE NEWPORT/MOREHEAD CITY NC
500 AM EDT SAT JUL 12 2014

NOTE: "FAIR" INDICATES FEW OR NO CLOUDS BELOW 12,000 FEET
WITH NO SIGNIFICANT WEATHER AND/OR OBSTRUCTIONS TO VISIBILITY

NCZ015>017-031-032-045>047-102-103-121000-
NORTH COAST

CITY           SKY/WX    TMP DP  RH WIND       PRES   REMARKS
EDENTON        CLEAR     68  67  98 CALM      30.20S FOG
ELIZABETH CITY PTCLDY    71  70  96 N6        30.21R
KITTY HAWK     SUNNY     71  70  97 CALM      30.19R FOG
MANTEO         NOT AVBL

$$

NCZ045>047-081-094-103-104-121000-
CENTRAL COAST

CITY           SKY/WX    TMP DP  RH WIND       PRES   REMARKS
FRISCO         CLOUDY    76  74  93 NE3       30.18R
SWANQUARTER      N/A     72 N/A N/A N2        30.15S

$$

NCZ095-097-098-100-101-121000-
SOUTHERN COAST

CITY           SKY/WX    TMP DP  RH WIND       PRES   REMARKS
BEAUFORT       CLOUDY    76  73  91 W3        30.18S
CEDAR ISLAND     N/A     75 N/A N/A SW3       30.21S
JACKSONVILLE   MOCLDY    71  70  96 CALM      30.19R FOG
NEWPORT        NOT AVBL
PINEY ISLAND   MOSUNNY   77  76  96 SW5       30.17S
WILMINGTON       N/A    N/A N/A N/A MISG      30.18F


$$

NCZ011>013-027>030-043-044-078>080-089-090>093-098-121000-
COASTAL PLAIN

CITY           SKY/WX    TMP DP  RH WIND       PRES   REMARKS
AHOSKIE        CLOUDY    66  65  96 CALM      30.22R VSB 3/4
CLINTON        MOCLDY    70  70 100 CALM      30.20S
ELIZABETHTOWN  CLOUDY    72  72 100 CALM      30.20R FOG
GOLDSBORO      CLOUDY    72  72 100 NE1       30.19R
GREENVILLE     HVY RAIN  68  68 100 CALM      30.21S VSB 1/4
HAVELOCK       CLOUDY    73  71  93 CALM      30.19S
KENANSVILLE    CLOUDY    69  67  95 CALM      30.21R FOG
KINSTON        CLOUDY    72  71  98 CALM      30.21R FOG
NEW BERN       FOG       73  70  88 CALM      30.20S VSB 1/2
RICHLANDS      CLOUDY    70  66  88 CALM      30.20R
ROANOKE RAPIDS NOT AVBL
ROCKY MOUNT    FOG       68  68 100 CALM      30.21S VSB 1/2
WASHINGTON     PTCLDY   N/A N/A N/A CALM      30.20S
WHITEVILLE     MOCLDY    72  70  96 CALM      30.19R FOG

$$

AMZ130-135-150-152-154-156-158-170-250-252-270-ANZ085-086-088-633-658-670-121000-
MARINE OBSERVATIONS

STATION/POSITION TIME  TEMP    WIND        PRES    WAVE   SWELL
                       AIR SEA DIR/SP/G            HT/PER HT/PER
                 (UTC) (F)     (DEG/KT/KT) (MB)    (FT/S) (FT/S)
CHESAPEAKE LIGHT NOT AVBL
BUOY 44014       0900   74 78   10/  8/  8 1022.0    2/ 8   2/ 8
DUCK             0900   72 71  360/  7/  8 1021.8
2E DUCK          0900                        N/A     1/ 8
OREGON INLET     0900   72 76  350/  4/  6 1022.2
BUOY 44095       0900      73                N/A     2/ 7
HATTERAS CG      0900   76 81   70/  2/  3 1022.3
DIAMOND BUOY     0900          VRB 10/ 12  1021.5    2/ 9   2/ 9
17S OCRACOKE INL NOT AVBL
CAPE LOOKOUT     0900   77     280/  3/  3 1021.7
BEAUFORT LAB     0900   76 81  300/  3/  5 1021.6
30 SE NEW RIVER  0900   79 81  230/  4/  4 1022.2    2/ 5   2/ 5
5 SE WRIGHTSVILL 0900   74 81  160/  6/  6 1022.7
FRYING PAN BUOY  NOT AVBL
BUOY 41001       NOT AVBL
BUOY 41002       0805   81 82  190/  2/  2 1022.2    3/ 7   3/ 7
BUOY 41004       0900   80 82  130/  6/  6 1020.4    2/ 9   2/ 9

$$


USA.gov is the U.S. government's official web portal to all federal, state and local government web resources and services.